Regional Weather Roundup
Issued by NWS

Home | Current Version | Previous Version | Text Only | Print | Product List | Glossary On
Versions: 1 2 3 4 5 6 7 8 9 10 11 12 13 14 15 16 17 18 19 20 21 22 23 24 25 26 27 28 29 30 31 32 33 34 35 36 37 38 39 40 41 42 43 44 45 46 47 48 49 50
567
ASUS44 KLIX 032010
RWRLA
LOUISIANA WEATHER ROUNDUP
NATIONAL WEATHER SERVICE NEW ORLEANS LA
200 PM CST TUE MAR 03 2015

NOTE: "FAIR" INDICATES FEW OR NO CLOUDS BELOW 12,000 FEET WITH NO
      SIGNIFICANT WEATHER AND/OR OBSTRUCTIONS TO VISIBILITY.
      SKY/WX - SKY CONDITION AND SIGNIFICANT WEATHER.
      TMP - AIR TEMPERATURE.    DP   - DEWPOINT TEMPERATURE.
      RH  - RELATIVE HUMIDITY.  PRES - PRESSURE.
      HX  - HEAT INDEX.         WCI  - WIND CHILL INDEX.

*  THESE STATIONS ARE NOT NWS OR FAA STATIONS AND ARE NOT UNDER
   NWS QUALITY CONTROL.

LAZ040-048-061>063-065-066-069-032100-
SOUTHEAST LOUISIANA

CITY           SKY/WX    TMP DP  RH WIND       PRES   REMARKS
N.O. AUDUBON     N/A     78  70  74 MISG        N/A
N.O. INTL ARPT PTSUNNY   79  66  64 S20       30.04F
N.O. LAKEFRONT CLOUDY    82  67  60 S15       30.05F
SLIDELL        CLOUDY    75  68  78 SE10      30.05F
BATON ROUGE    CLOUDY    76  69  79 S18       30.01F
BOOTHVILLE     FAIR      77  68  73 SE13      30.07F
BELLE CHASSE   PTSUNNY   77  65  66 S17       30.05F
BOGALUSA*        N/A     78  66  66 S12G17    30.05F
GALLIANO*      CLOUDY    79  67  67 MISG      30.06F
NEW ROADS*     MOCLDY    78  68  70 S13G18    30.00F
GONZALES*      CLOUDY    73  73 100 S7        30.01F
HAMMOND*       NOT AVBL
HOUMA*         PTSUNNY   79  70  73 SE18      30.04F
PORT FOURCHON* PTCLDY    75  68  78 SE13      30.09F

$$

LAZ041-044-053-054-032100-
SOUTHWEST LOUISIANA

CITY           SKY/WX    TMP DP  RH WIND       PRES   REMARKS
LAKE CHARLES   PTSUNNY   75  67  76 SW15G23   29.98F
LAFAYETTE      FAIR      78  68  71 S16G26    30.00F
PATTERSON      CLOUDY    72  70  94 S13G26    30.03F
SALT POINT       N/A     69  69 100 VRB3      30.01F
NEW IBERIA     PTSUNNY   78  69  73 S18G25    30.01F
CHENAULT AIRPK CLOUDY    75  66  73 S12       29.99F

$$

LAZ027-028-032100-
CENTRAL LOUISIANA

CITY           SKY/WX    TMP DP  RH WIND       PRES   REMARKS
FORT POLK      PTSUNNY   73  66  78 S18       29.95F
ALEXANDRIA INT CLOUDY    69  66  90 SE6       29.97F
ALEXANDRIA     CLOUDY    72  66  81 SW7       29.99F

$$

LAZ001-002-032100-
NORTHWEST LOUISIANA

CITY           SKY/WX    TMP DP  RH WIND       PRES   REMARKS
SHREVEPORT     CLOUDY    65  60  84 S9        29.94F
BARKSDALE AFB  CLOUDY    61  59  95 S7        29.95F
DTN SHREVEPORT CLOUDY    62  56  80 SE7       29.94F

$$

LAZ014-016-032100-
NORTHEAST LOUISIANA

CITY           SKY/WX    TMP DP  RH WIND       PRES   REMARKS
MONROE         CLOUDY    67  62  84 SE5       29.98F
TALLULAH       PTSUNNY   75  66  73 S12       29.99F

$$




USA.gov is the U.S. government's official web portal to all federal, state and local government web resources and services.